Change the Weather History Date:

Tuesday, September 3, 2013

  Actual Average (KRUG) Record (KRUG)
Temperature  
Mean Temperature 70 °F -  
Max Temperature 84 °F 77 °F 96 °F (1948)
Min Temperature 55 °F 51 °F 37 °F (1961)
Cooling Degree Days 4    
Growing Degree Days 20 (Base 50)    
Moisture  
Dew Point 58 °F    
Average Humidity 70    
Maximum Humidity 94    
Minimum Humidity 45    
Precipitation  
Precipitation 0.00 in - - ()
Sea Level Pressure  
Sea Level Pressure 30.01 in    
Wind  
Wind Speed 10 mph (WSW)    
Max Wind Speed 18 mph    
Max Gust Speed 22 mph    
Visibility 10 miles    
Events      
Averages and records for this station are not official NWS values.
T = Trace of Precipitation, MM = Missing Value Source: NWS Daily Summary

Daily Weather History Graph

Daily Weather History Graph

Search for Another Location

Airport or City:

Trip Planner

Search our weather history database for the weather conditions in past years. The results will help you decide how hot, cold, wet, or windy it might be!

Date:

Astronomy

Sep. 03, 2013 Rise Set
Actual Time 6:58 AM CDT 8:15 PM CDT
Civil Twilight 6:25 AM CDT 8:48 PM CDT
Nautical Twilight 5:46 AM CDT 9:27 PM CDT
Astronomical Twilight 5:03 AM CDT 10:10 PM CDT
Moon 5:09 AM CDT (9/3) 7:05 PM CDT (9/3)
Length of Visible Light 14h 22m
Length of Day
13h 17m
Waning Crescent, 3% of the Moon is Illuminated
Sep 3
Waning Crescent
Sep 5
New
Sep 12
First Quarter
Sep 19
Full
Sep 26
Last Quarter

Hourly Weather History & Observations

Time (CDT) Temp. Heat Index Dew Point Humidity Pressure Visibility Wind Dir Wind Speed Gust Speed Precip Events Conditions
12:15 AM 57.2 °F - 53.6 °F 88% 29.99 in 10.0 mi SSW 10.4 mph - N/A   Clear
12:35 AM 59.0 °F - 53.6 °F 82% 29.99 in 10.0 mi SSW 11.5 mph - N/A   Clear
12:55 AM 59.0 °F - 51.8 °F 77% 29.99 in 10.0 mi SSW 10.4 mph - N/A   Clear
1:15 AM 57.2 °F - 51.8 °F 82% 29.99 in 10.0 mi SSW 10.4 mph - N/A   Clear
1:35 AM 57.2 °F - 50.0 °F 77% 29.99 in 10.0 mi SSW 10.4 mph - N/A   Clear
1:55 AM 57.2 °F - 51.8 °F 82% 29.98 in 10.0 mi SSW 9.2 mph - N/A   Clear
2:15 AM 55.4 °F - 51.8 °F 88% 29.98 in 10.0 mi SW 9.2 mph - N/A   Clear
2:35 AM 57.2 °F - 51.8 °F 82% 29.98 in 10.0 mi SSW 8.1 mph - N/A   Clear
2:55 AM 59.0 °F - 53.6 °F 82% 29.98 in 10.0 mi SW 10.4 mph - N/A   Clear
3:15 AM 59.0 °F - 53.6 °F 82% 29.97 in 10.0 mi SW 9.2 mph - N/A   Clear
3:35 AM 57.2 °F - 53.6 °F 88% 29.97 in 10.0 mi SW 5.8 mph - N/A   Clear
3:55 AM 57.2 °F - 53.6 °F 88% 29.97 in 10.0 mi SSW 6.9 mph - N/A   Clear
4:15 AM 57.2 °F - 53.6 °F 88% 29.97 in 10.0 mi SSW 5.8 mph - N/A   Clear
4:35 AM 59.0 °F - 53.6 °F 82% 29.97 in 10.0 mi SSW 8.1 mph - N/A   Clear
4:55 AM 57.2 °F - 53.6 °F 88% 29.96 in 10.0 mi SSW 8.1 mph - N/A   Clear
5:15 AM 57.2 °F - 53.6 °F 88% 29.96 in 10.0 mi SSW 6.9 mph - N/A   Clear
5:35 AM 57.2 °F - 55.4 °F 94% 29.96 in 10.0 mi SSW 10.4 mph - N/A   Clear
5:55 AM 57.2 °F - 55.4 °F 94% 29.96 in 10.0 mi SSW 8.1 mph - N/A   Clear
6:15 AM 57.2 °F - 55.4 °F 94% 29.96 in 10.0 mi WSW 3.5 mph - N/A   Clear
6:35 AM 57.2 °F - 55.4 °F 94% 29.97 in 10.0 mi SW 8.1 mph - N/A   Clear
6:55 AM 57.2 °F - 55.4 °F 94% 29.97 in 10.0 mi SSW 6.9 mph - N/A   Clear
7:15 AM 57.2 °F - 55.4 °F 94% 29.98 in 10.0 mi SSW 8.1 mph - N/A   Clear
7:35 AM 57.2 °F - 55.4 °F 94% 29.97 in 10.0 mi SSW 8.1 mph - N/A   Clear
7:55 AM 57.2 °F - 55.4 °F 94% 29.97 in 10.0 mi SSW 8.1 mph - N/A   Clear
8:15 AM 60.8 °F - 57.2 °F 88% 29.98 in 10.0 mi SW 8.1 mph - N/A   Clear
8:35 AM 62.6 °F - 57.2 °F 82% 29.98 in 10.0 mi SW 8.1 mph - N/A   Clear
8:55 AM 64.4 °F - 57.2 °F 77% 29.98 in 10.0 mi WSW 5.8 mph - N/A   Clear
9:15 AM 68.0 °F - 59.0 °F 73% 29.99 in 10.0 mi WSW 8.1 mph - N/A   Clear
9:35 AM 71.6 °F - 59.0 °F 64% 29.98 in 10.0 mi WSW 8.1 mph - N/A   Clear
9:55 AM 73.4 °F - 59.0 °F 61% 29.99 in 10.0 mi West 9.2 mph - N/A   Clear
10:15 AM 75.2 °F - 59.0 °F 57% 29.98 in 10.0 mi West 9.2 mph - N/A   Clear
10:35 AM 77.0 °F - 62.6 °F 61% 29.99 in 10.0 mi West 8.1 mph - N/A   Clear
10:55 AM 77.0 °F - 60.8 °F 57% 29.99 in 10.0 mi WSW 9.2 mph - N/A   Clear
11:15 AM 77.0 °F - 60.8 °F 57% 29.99 in 10.0 mi West 10.4 mph - N/A   Clear
11:35 AM 78.8 °F - 62.6 °F 57% 29.99 in 10.0 mi WSW 9.2 mph - N/A   Clear
11:55 AM 80.6 °F 81.8 °F 62.6 °F 54% 29.99 in 10.0 mi West 8.1 mph - N/A   Unknown
12:15 PM 80.6 °F 81.8 °F 62.6 °F 54% 29.99 in 10.0 mi SW 8.1 mph - N/A   Unknown
12:35 PM 82.4 °F 83.4 °F 62.6 °F 51% 29.98 in 10.0 mi SW 9.2 mph - N/A   Unknown
12:55 PM 82.4 °F 83.4 °F 62.6 °F 51% 29.98 in 10.0 mi WSW 9.2 mph - N/A   Unknown
1:15 PM 82.4 °F 83.4 °F 62.6 °F 51% 29.98 in 10.0 mi WSW 11.5 mph - N/A   Unknown
1:35 PM 82.4 °F 83.4 °F 62.6 °F 51% 29.98 in 10.0 mi WSW 13.8 mph - N/A   Unknown
1:55 PM 84.2 °F 85.0 °F 62.6 °F 48% 29.98 in 10.0 mi West 9.2 mph - N/A   Unknown
2:15 PM 84.2 °F 85.0 °F 62.6 °F 48% 29.99 in 10.0 mi WNW 8.1 mph - N/A   Unknown
2:35 PM 84.2 °F 85.0 °F 62.6 °F 48% 29.99 in 10.0 mi WSW 8.1 mph - N/A   Unknown
2:55 PM 84.2 °F 85.0 °F 62.6 °F 48% 29.99 in 10.0 mi NW 9.2 mph - N/A   Unknown
3:15 PM 82.4 °F 83.4 °F 62.6 °F 51% 30.00 in 10.0 mi NNW 12.7 mph - N/A   Unknown
3:35 PM 80.6 °F 81.5 °F 60.8 °F 51% 30.00 in 10.0 mi North 10.4 mph - N/A   Unknown
3:55 PM 82.4 °F 82.5 °F 59.0 °F 45% 29.99 in 10.0 mi NNW 11.5 mph - N/A   Unknown
4:15 PM 82.4 °F 82.5 °F 59.0 °F 45% 30.00 in 10.0 mi North 11.5 mph - N/A   Unknown
4:35 PM 82.4 °F 82.5 °F 59.0 °F 45% 29.99 in 10.0 mi North 10.4 mph - N/A   Unknown
4:55 PM 82.4 °F 82.5 °F 59.0 °F 45% 30.00 in 10.0 mi North 11.5 mph - N/A   Unknown
5:15 PM 80.6 °F 81.1 °F 59.0 °F 48% 30.01 in 10.0 mi NNE 13.8 mph 18.4 mph N/A   Unknown
5:35 PM 80.6 °F 80.8 °F 57.2 °F 45% 30.01 in 10.0 mi NNE 15.0 mph 21.9 mph N/A   Unknown
5:55 PM 77.0 °F - 59.0 °F 54% 30.02 in 10.0 mi NNE 18.4 mph - N/A   Unknown
6:15 PM 77.0 °F - 60.8 °F 57% 30.03 in 10.0 mi NE 12.7 mph - N/A   Clear
6:35 PM 75.2 °F - 59.0 °F 57% 30.04 in 10.0 mi NE 15.0 mph - N/A   Clear
6:55 PM 75.2 °F - 60.8 °F 61% 30.03 in 10.0 mi NE 12.7 mph - N/A   Clear
7:15 PM 75.2 °F - 60.8 °F 61% 30.03 in 10.0 mi NE 11.5 mph - N/A   Clear
7:35 PM 73.4 °F - 60.8 °F 65% 30.05 in 10.0 mi NE 11.5 mph - N/A   Clear
7:55 PM 71.6 °F - 59.0 °F 64% 30.05 in 10.0 mi NE 10.4 mph - N/A   Clear
8:15 PM 69.8 °F - 59.0 °F 68% 30.06 in 10.0 mi NE 9.2 mph - N/A   Clear
8:35 PM 68.0 °F - 59.0 °F 73% 30.07 in 10.0 mi NE 10.4 mph 17.3 mph N/A   Clear
8:55 PM 66.2 °F - 59.0 °F 78% 30.08 in 10.0 mi NE 9.2 mph - N/A   Clear
9:15 PM 66.2 °F - 59.0 °F 78% 30.08 in 10.0 mi NE 8.1 mph - N/A   Clear
9:35 PM 66.2 °F - 59.0 °F 78% 30.09 in 10.0 mi NE 9.2 mph - N/A   Clear
9:55 PM 64.4 °F - 59.0 °F 83% 30.10 in 10.0 mi NE 11.5 mph - N/A   Partly Cloudy
10:15 PM 64.4 °F - 57.2 °F 77% 30.11 in 10.0 mi NE 12.7 mph - N/A   Clear
10:35 PM 62.6 °F - 57.2 °F 82% 30.11 in 10.0 mi NE 10.4 mph - N/A   Clear
10:55 PM 62.6 °F - 57.2 °F 82% 30.12 in 10.0 mi NE 11.5 mph - N/A   Clear
11:15 PM 62.6 °F - 55.4 °F 77% 30.13 in 10.0 mi NE 11.5 mph 18.4 mph N/A   Clear
11:35 PM 60.8 °F - 53.6 °F 77% 30.14 in 10.0 mi NE 10.4 mph - N/A   Clear
11:55 PM 59.0 °F - 53.6 °F 82% 30.14 in 10.0 mi NE 10.4 mph - N/A   Partly Cloudy